{"data":{"norad_id":47230,"epoch":"2026-09-20T03:37:35.089248Z","epoch_age_seconds":62391,"freshness":"FRESH","line1":"1 47230U 20091D   26263.15110057 -.00000045  00000+0 -39698-3 0  9995","line2":"2 47230  82.4961 242.5687 0015047 351.6767   8.4061 12.42929029262856","mean_motion":12.42929029,"eccentricity":0.0015047,"inclination_deg":82.4961,"raan_deg":242.5687,"arg_perigee_deg":351.6767,"mean_anomaly_deg":8.4061,"bstar":-0.00039698,"rev_number":26285,"period_min":115.85536795762,"perigee_km":1482.3655355692,"apogee_km":1506.056579814,"semimajor_km":7872.3480576916,"source":"CELESTRAK","updated_at":"2026-09-20T09:00:14.806668Z"}}